GW2260 Weather Reports


Display with metric or nautical units.
time (UTC)temp
F
wind
direction
speed
MPH
gust
MPH
rain 1hr
in
rain 24hr
in
rain mn
in
humidity
%
barometer
mb
20260509032018 67 336 8.0 12.0 0.00 0.00 0.00 90 1018.8
20260509031544 67 334 5.0 11.0 0.00 0.00 0.00 88 1018.7
20260509031017 68 337 2.0 9.0 0.00 0.00 0.00 87 1018.8
20260509030046 68 329 4.0 11.0 0.00 0.00 0.00 86 1018.5
20260509030017 69 340 7.0 11.0 0.00 0.00 0.00 86 1018.5
20260509025017 69 349 6.0 12.0 0.00 0.00 0.00 86 1018.4
20260509024548 68 301 5.0 13.0 0.00 0.00 0.00 86 1018.4
20260509024018 69 342 8.0 12.0 0.00 0.00 0.00 86 1018.3
20260509023044 68 325 6.0 13.0 0.00 0.00 0.00 86 1018.2
20260509023017 69 342 7.0 11.0 0.00 0.00 0.00 86 1018.3
20260509022018 69 351 6.0 10.0 0.00 0.00 0.00 85 1018.4
20260509021544 69 349 6.0 11.0 0.00 0.00 0.00 84 1018.3
20260509021017 69 304 5.0 8.0 0.00 0.00 0.00 85 1018.4
20260509020041 68 14 5.0 15.0 0.00 0.00 0.00 86 1018.4
20260509020018 68 338 5.0 9.0 0.00 0.00 0.00 86 1018.4
20260509015017 69 347 9.0 14.0 0.00 0.00 0.00 83 1018.7
20260509014544 69 274 6.0 13.0 0.00 0.00 0.00 83 1018.7
20260509014017 70 342 5.0 9.0 0.00 0.00 0.00 85 1018.8
20260509013044 70 341 6.0 17.0 0.00 0.00 0.00 82 1018.8
20260509013018 71 343 6.0 12.0 0.00 0.00 0.00 83 1018.8
20260509012018 71 338 6.0 11.0 0.00 0.00 0.00 83 1018.8
20260509011556 70 300 7.0 14.0 0.00 0.00 0.00 82 1018.7
20260509011017 70 333 7.0 10.0 0.00 0.00 0.00 82 1018.7
20260509010048 71 329 8.0 14.0 0.00 0.00 0.00 82 1018.7
20260509010018 71 341 8.0 14.0 0.00 0.00 0.00 82 1018.9
20260509005038 71 337 9.0 13.0 0.00 0.00 0.00 83 1018.8
20260509004600 71 316 6.0 12.0 0.00 0.00 0.00 83 1018.8
20260509004017 71 317 4.0 8.0 0.00 0.00 0.00 83 1018.9
20260509003044 70 13 7.0 14.0 0.00 0.00 0.00 82 1019.1
20260509003018 70 343 7.0 11.0 0.00 0.00 0.00 83 1019.1
20260509002017 71 298 4.0 8.0 0.00 0.00 0.00 85 1019.0
20260509001541 70 15 3.0 11.0 0.00 0.00 0.00 84 1018.9
20260509001017 70 316 3.0 8.0 0.00 0.00 0.00 84 1018.9
20260509000041 70 352 3.0 9.0 0.00 0.00 0.00 81 1018.8
20260509000039 70 327 3.0 7.0 0.00 0.00 0.00 82 1018.9
20260508235039 70 317 3.0 6.0 0.00 0.00 0.00 84 1019.0
20260508234536 70 346 4.0 10.0 0.00 0.00 0.00 83 1019.0
20260508234018 70 303 5.0 8.0 0.00 0.00 0.00 82 1019.1
20260508233044 70 273 7.0 13.0 0.00 0.00 0.00 80 1019.4
20260508233018 70 4 6.0 11.0 0.00 0.00 0.00 79 1019.4
20260508232017 71 27 1.0 3.0 0.00 0.00 0.00 80 1019.4
20260508231542 70 306 2.0 9.0 0.00 0.00 0.00 79 1019.3
20260508231018 71 329 4.0 9.0 0.00 0.00 0.00 77 1019.4
20260508230041 71 302 3.0 11.0 0.00 0.00 0.00 76 1019.5
20260508230018 72 355 4.0 7.0 0.00 0.00 0.00 75 1019.6
20260508225017 71 332 5.0 11.0 0.00 0.00 0.00 78 1019.7
20260508224540 71 5 4.0 11.0 0.00 0.00 0.00 76 1019.6
20260508224017 71 236 1.0 3.0 0.00 0.00 0.00 77 1019.8
20260508223048 70 351 2.0 11.0 0.00 0.00 0.00 75 1019.7
20260508223017 70 344 3.0 5.0 0.00 0.00 0.00 75 1019.8
20260508222039 70 299 3.0 6.0 0.00 0.00 0.00 81 1020.0
20260508221544 70 333 5.0 11.0 0.00 0.00 0.00 77 1020.0
20260508221039 70 342 7.0 10.0 0.00 0.00 0.00 81 1020.2
20260508220043 69 322 3.0 12.0 0.00 0.00 0.00 79 1020.2
20260508220018 70 306 3.0 8.0 0.00 0.00 0.00 80 1020.1
20260508215017 70 342 3.0 9.0 0.00 0.00 0.00 80 1020.2
20260508214559 70 337 5.0 9.0 0.00 0.00 0.00 76 1020.1
20260508214039 70 287 4.0 7.0 0.00 0.00 0.00 81 1020.5
20260508213041 69 338 2.0 8.0 0.00 0.00 0.00 77 1020.5
20260508213038 70 345 4.0 8.0 0.00 0.00 0.00 79 1020.6
20260508212017 70 318 4.0 6.0 0.00 0.00 0.00 79 1020.7
20260508211542 70 333 3.0 10.0 0.00 0.00 0.00 82 1020.6
20260508211018 70 321 3.0 6.0 0.00 0.00 0.00 83 1020.5
20260508210045 70 317 2.0 8.0 0.00 0.00 0.00 81 1020.7
20260508210039 70 326 4.0 8.0 0.00 0.00 0.00 81 1020.7
20260508205018 70 308 3.0 6.0 0.00 0.00 0.00 75 1020.9
20260508204545 70 327 2.0 7.0 0.00 0.00 0.00 77 1020.8
20260508204017 70 329 3.0 4.0 0.00 0.00 0.00 74 1021.0
20260508203045 70 352 2.0 5.0 0.00 0.00 0.00 76 1020.8
20260508203017 70 319 2.0 4.0 0.00 0.00 0.00 74 1020.8
20260508202038 70 339 2.0 3.0 0.00 0.00 0.00 73 1020.9
20260508201541 70 329 2.0 6.0 0.00 0.00 0.00 74 1021.1
20260508201017 71 331 4.0 5.0 0.00 0.00 0.00 73 1021.0
20260508200042 70 345 2.0 6.0 0.00 0.00 0.00 72 1021.0
20260508200017 70 331 4.0 5.0 0.00 0.00 0.00 73 1021.0
20260508195018 69 336 3.0 5.0 0.00 0.00 0.00 74 1020.8
20260508194544 69 332 2.0 8.0 0.00 0.00 0.00 79 1020.9
20260508194039 69 334 2.0 3.0 0.00 0.00 0.00 79 1021.0
20260508193057 69 352 2.0 7.0 0.00 0.00 0.00 79 1021.0
20260508193017 69 343 3.0 7.0 0.00 0.00 0.00 81 1021.0
20260508192017 69 336 4.0 5.0 0.00 0.00 0.00 75 1021.2
20260508191544 69 348 3.0 10.0 0.00 0.00 0.00 73 1021.0
20260508191018 69 333 3.0 7.0 0.00 0.00 0.00 75 1021.1
20260508190040 68 342 2.0 8.0 0.00 0.00 0.00 75 1020.9
20260508190018 69 307 3.0 8.0 0.00 0.00 0.00 78 1020.9
20260508185018 68 338 4.0 6.0 0.00 0.00 0.00 72 1021.0
20260508184538 67 349 3.0 9.0 0.00 0.00 0.00 71 1020.9
20260508184017 68 324 6.0 9.0 0.00 0.00 0.00 71 1021.0
20260508183049 67 352 3.0 6.0 0.00 0.00 0.00 70 1021.1
20260508183039 68 344 2.0 5.0 0.00 0.00 0.00 69 1021.1
20260508182018 68 329 3.0 5.0 0.00 0.00 0.00 70 1021.0
20260508181555 68 22 2.0 8.0 0.00 0.00 0.00 67 1021.0
20260508181018 68 35 4.0 6.0 0.00 0.00 0.00 64 1020.9
20260508180044 67 336 2.0 7.0 0.00 0.00 0.00 66 1021.1
20260508180018 68 23 2.0 3.0 0.00 0.00 0.00 65 1021.2
20260508175017 67 35 2.0 4.0 0.00 0.00 0.00 66 1021.0
20260508174541 66 60 1.0 4.0 0.00 0.00 0.00 66 1020.8
20260508174018 65 350 1.0 3.0 0.00 0.00 0.00 68 1020.9
20260508173041 63 38 0.0 6.0 0.00 0.00 0.00 72 1020.6
20260508173017 63 78 0.0 2.0 0.00 0.00 0.00 72 1020.7
20260508172017 61 96 2.0 4.0 0.00 0.00 0.00 73 1020.7
20260508171545 60 113 3.0 7.0 0.00 0.00 0.00 74 1020.6
20260508171018 60 91 3.0 4.0 0.00 0.00 0.00 75 1020.6
20260508170100 59 104 3.0 4.0 0.00 0.00 0.00 77 1020.5
20260508170045 59 88 2.0 7.0 0.00 0.00 0.00 77 1020.5
20260508165038 59 109 2.0 4.0 0.00 0.00 0.00 79 1020.4
20260508164542 58 94 2.0 4.0 0.00 0.00 0.00 79 1020.3
20260508164018 58 103 2.0 3.0 0.00 0.00 0.00 80 1020.4
20260508163047 58 123 3.0 6.0 0.00 0.00 0.00 80 1020.2
20260508163017 58 106 3.0 6.0 0.00 0.00 0.00 81 1020.2
20260508162017 58 108 3.0 4.0 0.00 0.00 0.00 82 1020.1
20260508161542 57 87 2.0 6.0 0.00 0.00 0.00 82 1020.0
20260508161017 57 107 3.0 6.0 0.00 0.00 0.00 83 1020.0
20260508160100 57 113 2.0 4.0 0.00 0.00 0.00 84 1019.7
20260508160017 57 110 2.0 3.0 0.00 0.00 0.00 84 1019.8
20260508155017 57 107 2.0 3.0 0.00 0.00 0.00 84 1019.7
20260508154543 56 102 2.0 4.0 0.00 0.00 0.00 84 1019.7
20260508154038 57 113 2.0 4.0 0.00 0.00 0.00 85 1019.8
20260508153046 56 109 2.0 3.0 0.00 0.00 0.00 85 1019.7
20260508153017 57 114 2.0 3.0 0.00 0.00 0.00 85 1019.7
20260508152018 57 122 2.0 3.0 0.00 0.00 0.00 86 1019.5
20260508151546 56 117 2.0 6.0 0.00 0.00 0.00 85 1019.5
20260508151017 57 119 2.0 3.0 0.00 0.00 0.00 86 1019.5
20260508150040 56 122 2.0 3.0 0.00 0.00 0.00 85 1019.5
20260508150017 57 125 2.0 3.0 0.00 0.00 0.00 86 1019.5
20260508145017 57 120 2.0 3.0 0.00 0.00 0.00 86 1019.4
20260508144547 56 116 2.0 4.0 0.00 0.00 0.00 85 1019.3
20260508144017 57 123 3.0 4.0 0.00 0.00 0.00 86 1019.5
20260508143056 56 130 2.0 4.0 0.00 0.00 0.00 86 1019.4
20260508143038 56 129 3.0 4.0 0.00 0.00 0.00 87 1019.4
20260508142017 57 123 2.0 4.0 0.00 0.00 0.00 86 1019.5
20260508141551 56 111 2.0 4.0 0.00 0.00 0.00 86 1019.4
20260508141017 56 122 3.0 3.0 0.00 0.00 0.00 87 1019.4
20260508140043 56 124 1.0 4.0 0.00 0.00 0.00 87 1019.2
20260508140017 56 122 2.0 3.0 0.00 0.00 0.00 87 1019.3
20260508135017 56 122 2.0 4.0 0.00 0.00 0.00 88 1019.3
20260508134542 56 145 2.0 3.0 0.00 0.00 0.00 88 1019.2
20260508134038 57 111 2.0 3.0 0.00 0.00 0.00 88 1019.3
20260508133054 57 103 2.0 4.0 0.00 0.00 0.00 87 1019.2
20260508133017 57 117 2.0 3.0 0.00 0.00 0.00 88 1019.2
20260508132038 57 112 2.0 3.0 0.00 0.00 0.00 88 1019.2
20260508131544 56 113 2.0 3.0 0.00 0.00 0.00 87 1019.1
20260508131038 57 121 2.0 3.0 0.00 0.00 0.00 88 1019.5
20260508130052 57 120 2.0 4.0 0.00 0.00 0.00 88 1019.5
20260508130017 57 113 2.0 4.0 0.00 0.00 0.00 88 1019.5
20260508125017 58 110 2.0 3.0 0.00 0.00 0.00 89 1019.6
20260508124541 57 123 2.0 4.0 0.00 0.00 0.00 88 1019.6
20260508124017 58 116 2.0 3.0 0.00 0.00 0.00 89 1019.6
20260508123041 57 115 1.0 6.0 0.00 0.00 0.00 88 1019.7
20260508123017 58 110 2.0 3.0 0.00 0.00 0.00 89 1019.7
20260508122017 57 105 4.0 6.0 0.00 0.00 0.00 90 1019.7
20260508121557 57 123 1.0 3.0 0.00 0.00 0.00 89 1019.5
20260508121038 57 116 2.0 3.0 0.00 0.00 0.00 89 1019.8
20260508120040 57 105 1.0 3.0 0.00 0.00 0.00 88 1019.9
20260508120017 58 113 2.0 3.0 0.00 0.00 0.00 89 1019.9
20260508115017 58 117 2.0 3.0 0.00 0.00 0.00 89 1019.9
20260508114542 58 126 2.0 6.0 0.00 0.00 0.00 87 1019.9
20260508114017 58 123 3.0 4.0 0.00 0.00 0.00 88 1020.1
20260508113044 58 87 2.0 4.0 0.00 0.00 0.00 88 1020.2
20260508113017 58 117 2.0 2.0 0.00 0.00 0.00 89 1020.2
20260508112017 58 118 2.0 3.0 0.00 0.00 0.00 90 1020.2
20260508111541 57 126 2.0 4.0 0.00 0.00 0.00 89 1020.2
20260508111017 58 123 2.0 4.0 0.00 0.00 0.00 90 1020.3
20260508110049 57 115 2.0 4.0 0.00 0.00 0.00 88 1020.3
20260508110017 58 125 2.0 3.0 0.00 0.00 0.00 89 1020.4
20260508105017 58 130 3.0 3.0 0.00 0.00 0.00 88 1020.5
20260508104545 58 109 2.0 3.0 0.00 0.00 0.00 87 1020.6
20260508104017 59 117 2.0 3.0 0.00 0.00 0.00 88 1020.7
20260508103043 59 102 1.0 6.0 0.00 0.00 0.00 87 1020.6
20260508103017 59 108 2.0 3.0 0.00 0.00 0.00 88 1020.7
20260508102017 60 100 3.0 4.0 0.00 0.00 0.00 88 1021.0
20260508101541 59 121 2.0 6.0 0.00 0.00 0.00 88 1020.9
20260508101017 60 109 2.0 4.0 0.00 0.00 0.00 87 1021.1
20260508100042 59 125 2.0 6.0 0.00 0.00 0.00 86 1021.2
20260508100017 60 87 2.0 4.0 0.00 0.00 0.00 87 1021.1
20260508095017 60 101 2.0 3.0 0.00 0.00 0.00 88 1021.2
20260508094547 60 109 2.0 4.0 0.00 0.00 0.00 88 1021.3
20260508094017 60 101 2.0 4.0 0.00 0.00 0.00 88 1021.5
20260508093059 60 111 1.0 2.0 0.00 0.00 0.00 88 1021.4
20260508093045 60 115 1.0 3.0 0.00 0.00 0.00 87 1021.3
20260508092038 60 53 1.0 2.0 0.00 0.00 0.00 89 1021.8
20260508091542 60 90 2.0 7.0 0.00 0.00 0.00 87 1021.6
20260508091016 60 112 1.0 3.0 0.00 0.00 0.00 86 1021.6
20260508090044 60 101 2.0 6.0 0.00 0.00 0.00 86 1021.6
20260508090038 60 102 2.0 4.0 0.00 0.00 0.00 87 1021.7
20260508085016 60 110 3.0 4.0 0.00 0.00 0.00 89 1021.7
20260508084542 60 84 2.0 7.0 0.00 0.00 0.00 88 1021.7
20260508084039 60 113 2.0 4.0 0.00 0.00 0.00 89 1021.8
20260508083116 60 116 2.0 6.0 0.00 0.00 0.00 88 1021.6
20260508083018 61 106 2.0 4.0 0.00 0.00 0.00 89 1021.8
20260508082018 61 103 1.0 3.0 0.00 0.00 0.00 92 1021.7
20260508081553 61 90 2.0 6.0 0.00 0.00 0.00 91 1021.6
20260508081039 61 91 1.0 2.0 0.00 0.00 0.00 94 1021.7
20260508080053 61 119 1.0 2.0 0.00 0.00 0.00 93 1021.7
20260508080018 61 105 1.0 2.0 0.00 0.00 0.00 93 1021.8
20260508075018 61 100 1.0 2.0 0.00 0.00 0.00 92 1021.9
20260508074542 60 101 1.0 4.0 0.00 0.00 0.00 92 1021.8
20260508074018 61 134 2.0 4.0 0.00 0.00 0.00 92 1021.8
20260508073057 61 98 1.0 2.0 0.00 0.00 0.00 93 1021.7
20260508073018 61 97 2.0 2.0 0.00 0.00 0.00 94 1021.7
20260508072018 63 0.0 0.0 0.00 0.00 0.00 97 1021.7
20260508071544 62 0 0.0 2.0 0.00 0.00 0.00 96 1021.6
20260508071018 63 322 0.0 2.0 0.00 0.00 0.00 97 1021.6
20260508070044 62 40 1.0 4.0 0.00 0.00 0.00 96 1021.4
20260508070017 63 39 2.0 2.0 0.00 0.00 0.00 97 1021.4
20260508065018 63 12 1.0 3.0 0.00 0.00 0.00 97 1021.5
20260508064603 63 5 1.0 3.0 0.00 0.00 0.00 96 1021.3
20260508064018 63 330 2.0 3.0 0.00 0.00 0.00 97 1021.4
20260508063045 62 360 0.0 3.0 0.00 0.00 0.00 96 1021.2
20260508063018 63 360 1.0 2.0 0.00 0.00 0.00 97 1021.2
20260508062017 63 353 2.0 3.0 0.00 0.00 0.00 97 1021.1
20260508061544 62 0 1.0 3.0 0.00 0.00 0.00 96 1020.9
20260508061018 63 356 2.0 3.0 0.00 0.00 0.00 97 1020.8
20260508060044 62 39 1.0 3.0 0.00 0.00 0.00 96 1020.5
20260508060039 63 34 1.0 2.0 0.00 0.00 0.00 96 1020.6
20260508055018 63 20 1.0 2.0 0.00 0.00 0.00 96 1020.4
20260508054600 62 360 0.0 2.0 0.00 0.00 0.00 96 1020.2
20260508054017 63 348 0.0 2.0 0.00 0.00 0.00 96 1020.2
20260508053039 62 349 1.0 4.0 0.00 0.00 0.00 95 1020.0
20260508053017 63 11 2.0 4.0 0.00 0.00 0.00 96 1020.1
20260508052017 63 0.0 2.0 0.00 0.00 0.00 95 1019.9
20260508051545 63 273 0.0 3.0 0.00 0.00 0.00 94 1019.9
20260508051018 63 198 1.0 2.0 0.00 0.00 0.00 94 1019.9
20260508050048 63 161 1.0 3.0 0.00 0.00 0.00 93 1019.6
20260508050038 64 184 1.0 2.0 0.00 0.00 0.00 93 1019.7
20260508045017 64 201 1.0 3.0 0.00 0.00 0.00 93 1019.7
20260508044541 64 209 1.0 7.0 0.00 0.00 0.00 91 1019.6
20260508044017 65 195 2.0 5.0 0.00 0.00 0.00 91 1019.5
20260508043041 65 186 2.0 8.0 0.00 0.00 0.00 91 1019.4
20260508043018 65 216 3.0 4.0 0.00 0.00 0.00 91 1019.4
20260508042017 66 197 3.0 7.0 0.00 0.00 0.00 91 1019.5
20260508041537 66 175 2.0 6.0 0.00 0.00 0.00 91 1019.4
20260508041121 66 219 3.0 6.0 0.00 0.00 0.00 91 1019.4
20260508040047 67 198 2.0 5.0 0.00 0.00 0.00 90 1019.4
20260508040018 67 216 3.0 4.0 0.00 0.00 0.00 90 1019.4
20260508035017 68 213 1.0 5.0 0.00 0.00 0.00 90 1019.3
20260508034542 68 196 1.0 6.0 0.00 0.00 0.00 89 1019.3
20260508034018 68 209 2.0 4.0 0.00 0.00 0.00 89 1019.3
20260508033042 69 196 2.0 10.0 0.00 0.00 0.00 87 1019.2
20260508033017 69 243 2.0 6.0 0.00 0.00 0.00 88 1019.2